Home   Weather   Buchs   Past weeks

Flag for Switzerland Past Weather in Buchs, St. Gallen, Switzerland — Yesterday and Last 2 Weeks

Now
23 °F

Cold.


Feels Like: 23 °F
Forecast: 28 / 50 °F
Wind: 1 mph from East

Location: Vaduz

Current Time: Dec 4, 2016 at 7:24:19 am

Latest Report: Dec 4, 2016 at 6:00 am


Visibility: N/A

Pressure: 30.36 "Hg

Humidity: 92%

Dew Point: 21 °F

Location of BuchsLocation

Past Weather in Buchs — Graph

°F

Buchs Temperature Yesterday

Maximum temperature yesterday: 40 °F (at 2:00 pm)
Minimum temperature yesterday: 24 °F (at 8:00 am)
Average temperature yesterday: 30 °F

High & Low Weather Summary for the Past Weeks

 TemperatureHumidityPressure
High67 °F (Nov 22, 1:00 pm)97% (Nov 19, 6:00 am)30.67 "Hg (Nov 19, 6:00 am)
Low23 °F (Nov 30, 8:00 am)24% (Nov 24, 7:00 am)29.61 "Hg (Nov 21, 1:00 pm)
Average45 °F66%30.10 "Hg
* Reported Nov 19 6:00 am — Dec 4 6:00 am, Buchs, Weather by CustomWeather, © 2016

Note: Actual official high and low records may vary slightly from our data, if they occured in-between our weather recording intervals... More about our weather records

Advertising

Buchs Weather History for the Previous 24 Hours

Scroll right to see more
 ConditionsComfort  
Time TempWeatherWind HumidityBarometerVisibility
6:00 am
Sun, Dec 4
23 °FCold.1 mph92%30.36 "HgN/A
5:00 am23 °FCold.1 mph96%30.34 "HgN/A
4:00 am24 °FFog.No wind95%30.34 "Hg6 mi
3:00 am24 °FCold.1 mph93%30.35 "HgN/A
2:00 am25 °FChilly.No wind96%30.33 "HgN/A
1:00 am26 °FFog.No wind96%30.32 "Hg6 mi
12:00 am27 °FChilly.1 mph91%30.30 "HgN/A
11:00 pm
Sat, Dec 3
28 °FChilly.No wind94%30.29 "HgN/A
10:00 pm28 °FFog.2 mph91%30.26 "Hg6 mi
9:00 pm29 °FChilly.1 mph88%30.25 "HgN/A
8:00 pm32 °FChilly.3 mph83%30.24 "HgN/A
7:00 pm32 °FFog.3 mph86%30.24 "Hg6 mi
6:00 pm31 °FChilly.No wind88%30.24 "HgN/A
5:00 pm33 °FChilly.No wind84%30.22 "HgN/A
4:00 pm37 °FFog.2 mph74%30.18 "Hg6 mi
3:00 pm40 °FChilly.3 mph68%30.15 "HgN/A
2:00 pm40 °FChilly.5 mph66%30.15 "HgN/A
1:00 pm39 °FFog.3 mph71%30.16 "Hg6 mi
12:00 pm36 °FChilly.2 mph75%30.18 "HgN/A
11:00 am33 °FChilly.1 mph81%30.20 "HgN/A
10:00 am26 °FFog.No wind93%30.22 "Hg6 mi
9:00 am24 °FCold.1 mph94%30.22 "HgN/A
8:00 am24 °FCold.No wind96%30.22 "HgN/A
7:00 am24 °FFog.No wind96%30.21 "Hg6 mi
Weather by CustomWeather, © 2016

See weather overviewHow to use our weather pages